Weather observations for the past three days for
Delta County Airport
Imperial (Metric)
Date Time (edt) Wind (mph) Vis. (mi.) Weather Sky Cond. Temperature (ºF) Relative Humidity Wind Chill (°F) Heat Index (°F) Pressure Precipitation (in)
Air Dwpt 6 hour altimeter (in) sea level (mb) 1 hr 3 hr 6 hr
Max. Min.
21 23:56 NW 3 10.00 Fair CLR 55.9 55 97% 30.12 1020.3
21 22:56 N 3 10.00 Fair CLR 61 53.1 75% 30.12 1020.3
21 21:56 N 5 10.00 Fair CLR 64 59 84% 30.12 1020.1
21 20:56 Calm 10.00 Fair CLR 68 57.9 70% 30.11 1019.8
21 19:56 SE 5 10.00 Fair CLR 73 55 75.9 73 53% 30.11 1019.7
21 18:56 S 7 9.00 Fair CLR 73.9 57 56% 30.11 1019.8
21 17:56 SE 9 10.00 Fair CLR 75 54 48% 78 30.12 1020.1
21 16:56 S 9 10.00 Fair CLR 75 53.1 46% 78 30.13 1020.5
21 15:56 S 12 10.00 Fair CLR 75 55.9 52% 78 30.14 1020.9
21 14:56 SE 10 10.00 Fair CLR 75 59 58% 77 30.15 1021.2
21 13:56 SE 7 10.00 Fair CLR 73.9 57 75 57.9 56% 30.16 1021.4
21 12:56 E 8 10.00 Fair CLR 75 54 48% 78 30.17 1021.5
21 11:56 E 5 9.00 Fair CLR 72 55.9 57% 30.17 1021.6
21 10:56 N 8 10.00 Fair CLR 68 55.9 65% 30.17 1021.7
21 09:56 NE 6 10.00 Fair CLR 64.9 55.9 73% 30.16 1021.5
21 08:56 NE 7 10.00 Fair CLR 63 55 76% 30.17 1021.6
21 07:56 N 3 10.00 Fair CLR 57.9 55 61 53.1 90% 30.16 1021.5
21 06:56 N 6 10.00 Fair CLR 54 54 100% 30.15 1021.2
21 05:56 NW 3 10.00 Fair CLR 54 54 100% 30.14 1020.8
21 04:56 NW 3 10.00 A Few Clouds FEW060 57 54 90% 30.12 1020.3
21 03:56 NW 3 10.00 Fair CLR 57.9 54 87% 30.12 1020.1
21 02:56 N 5 10.00 Fair CLR 59 55.9 90% 30.12 1020.0
21 01:56 NW 6 10.00 Mostly Cloudy BKN070 61 55.9 73.9 61 84% 30.12 1020.1
21 00:56 Calm 10.00 Mostly Cloudy BKN070 63 57.9 84% 30.12 1020.2
20 23:56 N 6 10.00 Mostly Cloudy BKN065 64.9 61 87% 30.12 1019.9
20 22:56 N 5 10.00 Mostly Cloudy BKN070 66 64 93% 30.11 1019.8
20 21:56 N 6 10.00 Overcast OVC075 69.1 63 81% 30.1 1019.3
20 20:56 N 7 10.00 Mostly Cloudy BKN070 72 64.9 79% 30.09 1018.9
20 19:56 N 7 10.00 Fair CLR 73.9 66.9 81 71.1 79% 30.06 1018.1 0.06
20 18:56 Calm 10.00 A Few Clouds FEW120 73.9 73 97% 30.05 1017.7
20 17:56 Calm 10.00 A Few Clouds FEW120 75 70 84% 75 30.06 1017.8
20 16:56 N 3 10.00 Mostly Cloudy BKN080 73 72 96% 30.06 1017.9 0.06
20 15:56 Calm 10.00 Overcast OVC080 75 73 94% 73 30.05 1017.6 0.02
20 14:56 SW 5 9.00 Thunderstorm Light Rain BKN041 BKN047 BKN055 73 70 90% 30.06 1018.0 0.04
20 13:56 W 7 10.00 Thunderstorm in Vicinity OVC075 81 64.9 81 64 58% 83 30.04 1017.3
20 12:56 W 9 10.00 Overcast OVC080 81 63 54% 82 30.04 1017.2
20 11:56 W 8 10.00 Fair CLR 80.1 62.1 54% 81 30.04 1017.2
20 10:56 W 9 10.00 Fair CLR 77 63 62% 79 30.04 1017.2
20 09:56 W 12 10.00 Fair CLR 73 62.1 69% 30.05 1017.6
20 08:56 W 10 10.00 Fair CLR 70 60.1 71% 30.05 1017.9
20 07:56 W 7 10.00 Fair CLR 64 61 64 59 90% 30.05 1017.9
20 06:56 W 5 10.00 Fair CLR 60.1 60.1 100% 30.04 1017.4
20 05:56 W 6 10.00 Fair CLR 60.1 59 96% 30.04 1017.2
20 04:56 W 6 10.00 Fair CLR 59 59 100% 30.03 1017.0
20 03:56 W 6 10.00 Fair CLR 60.1 60.1 100% 30.03 1017.0
20 02:56 W 5 10.00 Fair CLR 61 60.1 97% 30.04 1017.1
20 01:56 Calm 10.00 Fair CLR 62.1 62.1 75 62.1 100% 30.04 1017.3
20 00:56 W 5 10.00 Fair CLR 64 64 100% 30.05 1017.8
19 23:56 SW 5 10.00 Fair CLR 66.9 64 91% 30.05 1017.7
19 22:56 SW 12 10.00 Fair CLR 70 66 87% 30.05 1017.6
19 21:56 S 9 10.00 Fair CLR 71.1 64.9 81% 30.05 1017.6
19 20:56 S 9 10.00 Fair CLR 73 62.1 69% 30.04 1017.1
19 19:56 S 14 G 18 10.00 Fair CLR 75 61 78.1 73.9 62% 77 30.03 1016.9
19 18:56 S 14 G 20 10.00 Fair CLR 75.9 61 60% 78 30.04 1017.5
19 17:56 S 13 G 18 10.00 Partly Cloudy FEW065 SCT085 75 62.1 64% 77 30.06 1018.1
19 16:56 S 14 G 23 10.00 Mostly Cloudy BKN080 77 62.1 60% 79 30.07 1018.6
19 15:56 S 15 G 20 10.00 Overcast OVC070 73.9 62.1 67% 30.08 1018.8
19 14:56 S 14 10.00 Mostly Cloudy BKN060 77 62.1 60% 79 30.09 1018.9
19 13:56 S 14 10.00 A Few Clouds FEW060 75.9 61 79 57.9 60% 78 30.1 1019.4
19 12:56 S 8 10.00 A Few Clouds FEW060 75.9 57 52% 78 30.1 1019.6
19 11:56 SW 13 10.00 A Few Clouds FEW060 78.1 55 45% 79 30.12 1020.1
19 10:56 W 9 10.00 Fair CLR 75.9 57 52% 78 30.13 1020.3
19 09:56 W 5 10.00 Fair CLR 72 57.9 61% 30.15 1020.9
19 08:56 W 5 10.00 Fair CLR 64 59 84% 30.15 1021.0
19 07:56 Calm 10.00 Fair CLR 57.9 57 57.9 50 97% 30.14 1020.9
19 06:56 W 3 7.00 Fair CLR 54 54 100% 30.13 1020.8
19 05:56 Calm 1.50 Fog/Mist CLR 53.1 53.1 100% 30.13 1020.6
19 04:56 Calm 10.00 Fair CLR 52 52 100% 30.13 1020.5
19 03:56 Calm 10.00 Fair CLR 53.1 53.1 100% 30.12 1020.3
19 02:56 Calm 10.00 Fair CLR 55.4 0 0% 30.13 1020.5
19 01:56 W 3 10.00 Fair CLR 53.6 0 70 54 0% 30.14 1021.0
19 00:56 S 5 10.00 Fair CLR 64 59 84% 30.15 1020.9
Date Time (edt) Wind (mph) Vis. (mi.) Weather Sky Cond. Air Dwpt Max. Min. Relative Humidity Wind Chill (°F) Heat Index (°F) altimeter (in) sea level (mb) 1 hr 3 hr 6 hr
6 hour
Temperature (ºF) Pressure Precipitation (in)